Weather History for KCOD - December, 2012

Change the Weather History Date:

Monday, December 24, 2012

  Actual Average (KGEY) Record (KGEY)
Temperature  
Mean Temperature 11 °F 16 °F  
Max Temperature 21 °F 28 °F 45 °F (2005)
Min Temperature 1 °F 5 °F -18 °F (2008)
Degree Days  
Heating Degree Days 54 49  
Month to date heating degree days 1124  
Since 1 July heating degree days 2981  
Cooling Degree Days 0 0  
Month to date cooling degree days 0  
Year to date cooling degree days 669  
Moisture  
Dew Point 6 °F    
Average Humidity 83    
Maximum Humidity 100    
Minimum Humidity 58    
Precipitation  
Precipitation 0.00 in 0.01 in T in (2007)
Month to date precipitation 0.24  
Year to date precipitation 7.47  
Sea Level Pressure  
Sea Level Pressure 29.86 in    
Wind  
Wind Speed 8 mph (NNE)    
Max Wind Speed 18 mph    
Max Gust Speed 25 mph    
Visibility 8 miles    
Events      
T = Trace of Precipitation, MM = Missing Value Source: NWS Daily Summary

Daily Weather History Graph

Daily Weather History Graph

Search for Another Location

Airport or City:

Trip Planner

Search our weather history database for the weather conditions in past years. The results will help you decide how hot, cold, wet, or windy it might be!

Date:

Astronomy

Dec. 24, 2012 Rise Set
Actual Time 7:51 AM MST 4:41 PM MST
Civil Twilight 7:17 AM MST 5:14 PM MST
Nautical Twilight 6:40 AM MST 5:51 PM MST
Astronomical Twilight 6:05 AM MST 6:26 PM MST
Moon 2:13 PM MST (12/24) 4:29 AM MST (12/24)
Length of Visible Light 9h 56m
Length of Day
8h 49m
Waxing Gibbous, 89% of the Moon is Illuminated
Dec 24
Waxing Gibbous
Dec 28
Full
Jan 4
Last Quarter
Jan 11
New
Jan 18
First Quarter

Hourly Weather History & Observations

Time (MST) Temp. Windchill Dew Point Humidity Pressure Visibility Wind Dir Wind Speed Gust Speed Precip Events Conditions
12:15 AM 21.2 °F 13.6 °F 8.6 °F 58% 29.76 in 10.0 mi South 5.8 mph - N/A   Clear
12:35 AM 19.4 °F 14.3 °F 10.4 °F 68% 29.75 in 10.0 mi South 3.5 mph - N/A   Mostly Cloudy
12:55 AM 21.2 °F 16.4 °F 10.4 °F 63% 29.74 in 10.0 mi SSE 3.5 mph - N/A   Mostly Cloudy
1:15 AM 19.4 °F - 8.6 °F 63% 29.73 in 10.0 mi Calm Calm - N/A   Partly Cloudy
1:35 AM 17.6 °F - 8.6 °F 68% 29.73 in 10.0 mi Calm Calm - N/A   Clear
1:55 AM 17.6 °F - 8.6 °F 68% 29.73 in 10.0 mi Calm Calm - N/A   Clear
2:35 AM 17.6 °F 9.3 °F 8.6 °F 68% 29.73 in 10.0 mi SE 5.8 mph - N/A   Clear
2:55 AM 19.4 °F 10.4 °F 10.4 °F 68% 29.72 in 10.0 mi South 6.9 mph - N/A   Clear
3:15 AM 15.8 °F 7.2 °F 8.6 °F 73% 29.72 in 10.0 mi SSW 5.8 mph - N/A   Clear
3:35 AM 17.6 °F - 10.4 °F 73% 29.71 in 10.0 mi Calm Calm - N/A   Clear
3:55 AM 19.4 °F 11.5 °F 10.4 °F 68% 29.71 in 10.0 mi SSW 5.8 mph - N/A   Clear
4:15 AM 17.6 °F - 10.4 °F 73% 29.71 in 10.0 mi Calm Calm - N/A   Partly Cloudy
4:35 AM 19.4 °F 12.8 °F 12.2 °F 74% 29.71 in 10.0 mi SSE 4.6 mph - N/A   Scattered Clouds
4:55 AM 19.4 °F 12.8 °F 12.2 °F 74% 29.71 in 10.0 mi SSW 4.6 mph - N/A   Mostly Cloudy
5:15 AM 17.6 °F - 10.4 °F 73% 29.71 in 10.0 mi Calm Calm - N/A   Overcast
5:35 AM 19.4 °F - 12.2 °F 74% 29.71 in 10.0 mi Calm Calm - N/A   Overcast
5:55 AM 17.6 °F 10.7 °F 10.4 °F 73% 29.72 in 10.0 mi North 4.6 mph - N/A   Mostly Cloudy
6:15 AM 15.8 °F 10.2 °F 10.4 °F 79% 29.72 in 10.0 mi North 3.5 mph - N/A   Clear
6:35 AM 15.8 °F 8.6 °F 10.4 °F 79% 29.72 in 10.0 mi WSW 4.6 mph - N/A   Partly Cloudy
6:55 AM 15.8 °F 7.2 °F 10.4 °F 79% 29.73 in 10.0 mi NE 5.8 mph - N/A   Mostly Cloudy
7:15 AM 14.0 °F 2.0 °F 8.6 °F 79% 29.74 in 10.0 mi NE 9.2 mph - N/A   Overcast
7:35 AM 12.2 °F -2.5 °F 10.4 °F 92% 29.75 in 10.0 mi NE 12.7 mph - N/A   Overcast
7:55 AM 10.4 °F -4.1 °F 10.4 °F 100% 29.75 in 8.0 mi NE 11.5 mph - N/A   Overcast
8:35 AM 10.4 °F -6.0 °F 10.4 °F 100% 29.77 in 5.0 mi NE 15.0 mph 19.6 mph N/A   Overcast
8:55 AM 10.4 °F -4.1 °F 10.4 °F 100% 29.78 in 4.0 mi NNE 11.5 mph - N/A   Overcast
9:15 AM 10.4 °F -5.4 °F 10.4 °F 100% 29.79 in 4.0 mi NNE 13.8 mph 19.6 mph N/A   Overcast
9:35 AM 10.4 °F -4.8 °F 8.6 °F 92% 29.80 in 4.0 mi NNE 12.7 mph - N/A   Overcast
9:55 AM 10.4 °F -5.4 °F 8.6 °F 92% 29.80 in 5.0 mi NNE 13.8 mph 19.6 mph N/A   Overcast
10:15 AM 10.4 °F -4.8 °F 8.6 °F 92% 29.81 in 7.0 mi NNE 12.7 mph - N/A   Overcast
10:35 AM 10.4 °F -4.1 °F 8.6 °F 92% 29.82 in 9.0 mi NNE 11.5 mph 17.3 mph N/A   Overcast
10:55 AM 10.4 °F -6.0 °F 8.6 °F 92% 29.81 in 8.0 mi NNE 15.0 mph - N/A   Overcast
11:15 AM 10.4 °F -6.6 °F 8.6 °F 92% 29.81 in 9.0 mi NNE 16.1 mph 19.6 mph N/A   Overcast
11:35 AM 10.4 °F -6.6 °F 8.6 °F 92% 29.81 in 10.0 mi NNE 16.1 mph - N/A   Overcast
11:55 AM 10.4 °F -6.6 °F 8.6 °F 92% 29.81 in 10.0 mi NE 16.1 mph - N/A   Overcast
12:15 PM 10.4 °F -6.6 °F 6.8 °F 85% 29.81 in 10.0 mi NNE 16.1 mph 21.9 mph N/A   Overcast
12:35 PM 10.4 °F -7.2 °F 6.8 °F 85% 29.81 in 10.0 mi NE 17.3 mph 21.9 mph N/A   Overcast
12:55 PM 10.4 °F -6.6 °F 6.8 °F 85% 29.81 in 10.0 mi NNE 16.1 mph 21.9 mph N/A   Overcast
1:15 PM 10.4 °F -7.2 °F 6.8 °F 85% 29.81 in 10.0 mi NNE 17.3 mph 20.7 mph N/A   Mostly Cloudy
1:35 PM 10.4 °F -7.2 °F 6.8 °F 85% 29.81 in 10.0 mi NNE 17.3 mph 20.7 mph N/A   Overcast
2:15 PM 10.4 °F -7.7 °F 5.0 °F 79% 29.82 in 10.0 mi NNE 18.4 mph 23.0 mph N/A   Overcast
2:35 PM 10.4 °F -7.7 °F 5.0 °F 79% 29.83 in 10.0 mi NNE 18.4 mph 23.0 mph N/A   Mostly Cloudy
2:55 PM 8.6 °F -9.5 °F 3.2 °F 79% 29.84 in 10.0 mi NNE 17.3 mph - N/A   Partly Cloudy
3:15 PM 6.8 °F -11.8 °F 3.2 °F 85% 29.85 in 10.0 mi NNE 17.3 mph 24.2 mph N/A   Clear
3:35 PM 6.8 °F -12.4 °F 3.2 °F 85% 29.86 in 10.0 mi NNE 18.4 mph - N/A   Clear
3:55 PM 6.8 °F -11.3 °F 1.4 °F 79% 29.87 in 10.0 mi NNE 16.1 mph 24.2 mph N/A   Partly Cloudy
4:15 PM 6.8 °F -9.3 °F 3.2 °F 85% 29.89 in 10.0 mi NNE 12.7 mph 21.9 mph N/A   Mostly Cloudy
4:35 PM 5.0 °F -11.6 °F 3.2 °F 92% 29.90 in 10.0 mi NNE 12.7 mph 19.6 mph N/A   Overcast
4:55 PM 5.0 °F -12.3 °F 1.4 °F 85% 29.92 in 10.0 mi NNE 13.8 mph 23.0 mph N/A   Overcast
5:15 PM 5.0 °F -13.0 °F 1.4 °F 85% 29.93 in 10.0 mi NNE 15.0 mph 23.0 mph N/A   Overcast
5:35 PM 5.0 °F -14.2 °F 3.2 °F 92% 29.94 in 10.0 mi North 17.3 mph 23.0 mph N/A   Overcast
5:55 PM 5.0 °F -14.2 °F 1.4 °F 85% 29.96 in 10.0 mi North 17.3 mph 23.0 mph N/A   Overcast
6:15 PM 3.2 °F -15.9 °F -0.4 °F 85% 29.98 in 10.0 mi North 16.1 mph 20.7 mph N/A   Overcast
6:35 PM 3.2 °F -17.1 °F -0.4 °F 85% 29.99 in 10.0 mi NNE 18.4 mph 25.3 mph N/A   Overcast
6:55 PM 3.2 °F -15.9 °F -0.4 °F 85% 30.00 in 10.0 mi North 16.1 mph 20.7 mph N/A   Overcast
7:15 PM 3.2 °F -15.3 °F -0.4 °F 85% 30.01 in 9.0 mi North 15.0 mph 21.9 mph N/A   Overcast
7:35 PM 3.2 °F -13.9 °F -0.4 °F 85% 30.03 in 3.0 mi North 12.7 mph 23.0 mph N/A   Overcast
7:55 PM 1.4 °F -16.1 °F -0.4 °F 92% 30.04 in 1.0 mi NNE 12.7 mph 20.7 mph N/A   Overcast
8:15 PM 1.4 °F -16.1 °F -0.4 °F 92% 30.04 in 1.8 mi North 12.7 mph 19.6 mph N/A   Overcast
8:35 PM 1.4 °F -17.6 °F -0.4 °F 92% 30.06 in 2.5 mi North 15.0 mph - N/A   Overcast
8:55 PM 1.4 °F -17.6 °F -0.4 °F 92% 30.07 in 3.0 mi North 15.0 mph - N/A   Overcast
9:15 PM 1.4 °F -14.5 °F -0.4 °F 92% 30.07 in 2.0 mi NNE 10.4 mph - N/A   Overcast
9:35 PM 1.4 °F -13.5 °F 1.4 °F 100% 30.08 in 2.5 mi North 9.2 mph - N/A   Overcast
9:55 PM 1.4 °F -9.9 °F -0.4 °F 92% 30.09 in 2.0 mi North 5.8 mph - N/A   Overcast
10:15 PM 3.2 °F -7.8 °F -0.4 °F 85% 30.10 in 2.5 mi North 5.8 mph - N/A   Overcast
10:35 PM 3.2 °F -6.2 °F -0.4 °F 85% 30.11 in 2.0 mi NNE 4.6 mph - N/A   Overcast
11:15 PM 3.2 °F -6.2 °F -0.4 °F 85% 30.12 in 3.0 mi NE 4.6 mph - N/A   Overcast
11:35 PM 1.4 °F -9.9 °F -0.4 °F 92% 30.12 in 4.0 mi ENE 5.8 mph - N/A   Overcast
11:55 PM 1.4 °F -11.3 °F -0.4 °F 92% 30.12 in 4.0 mi ENE 6.9 mph - N/A   Overcast